TimeEDT,TemperatureF,Dew PointF,Humidity,Sea Level PressureIn,VisibilityMPH,Wind Direction,Wind SpeedMPH,Gust SpeedMPH,PrecipitationIn,Events,Conditions,WindDirDegrees,DateUTC
12:53 AM,61.0,55.9,83,30.05,10.0,North,3.5,-,N/A,,Clear,360,2014-05-13 04:53:00
1:53 AM,53.6,46.4,77,30.09,10.0,NNE,11.5,23.0,N/A,,Clear,20,2014-05-13 05:53:00
2:53 AM,52.0,42.1,69,30.12,10.0,NE,16.1,23.0,N/A,,Clear,50,2014-05-13 06:53:00
3:53 AM,54.0,39.9,59,30.13,10.0,NE,15.0,21.9,N/A,,Clear,50,2014-05-13 07:53:00
4:53 AM,53.1,39.9,61,30.15,10.0,NE,12.7,21.9,N/A,,Clear,50,2014-05-13 08:53:00
5:53 AM,52.0,39.9,63,30.18,10.0,NE,10.4,-,N/A,,Clear,40,2014-05-13 09:53:00
6:53 AM,52.0,42.1,69,30.21,10.0,NE,13.8,-,N/A,,Clear,50,2014-05-13 10:53:00
7:53 AM,53.1,43.0,69,30.22,10.0,NE,12.7,-,N/A,,Clear,40,2014-05-13 11:53:00
8:53 AM,55.4,42.8,63,30.25,10.0,ENE,15.0,25.3,N/A,,Partly Cloudy,60,2014-05-13 12:53:00
9:53 AM,57.9,39.9,51,30.25,10.0,NE,18.4,23.0,N/A,,Scattered Clouds,50,2014-05-13 13:53:00
11:53 AM,55.4,39.2,54,30.28,10.0,North,8.1,-,N/A,,Clear,10,2014-05-13 15:53:00
12:53 PM,57.0,41.0,55,30.28,10.0,NE,16.1,21.9,N/A,,Clear,40,2014-05-13 16:53:00
1:53 PM,57.9,39.9,51,30.28,10.0,NE,15.0,24.2,N/A,,Partly Cloudy,50,2014-05-13 17:53:00
2:53 PM,55.9,39.0,53,30.28,10.0,NNE,16.1,20.7,N/A,,Overcast,30,2014-05-13 18:53:00
3:53 PM,54.0,39.0,57,30.28,10.0,NE,11.5,-,N/A,,Mostly Cloudy,50,2014-05-13 19:53:00
4:53 PM,52.0,39.0,61,30.30,10.0,ENE,13.8,-,N/A,,Overcast,60,2014-05-13 20:53:00
5:53 PM,48.9,39.0,69,30.30,10.0,NNE,10.4,-,N/A,,Overcast,30,2014-05-13 21:53:00
6:53 PM,48.0,39.9,74,30.30,10.0,NNE,8.1,-,N/A,,Overcast,20,2014-05-13 22:53:00
7:53 PM,48.0,39.0,71,30.29,10.0,ENE,8.1,-,N/A,,Overcast,60,2014-05-13 23:53:00
8:53 PM,46.9,39.9,77,30.31,10.0,ENE,8.1,-,N/A,,Overcast,70,2014-05-14 00:53:00
9:53 PM,46.9,39.9,77,30.32,10.0,NE,8.1,-,N/A,,Mostly Cloudy,40,2014-05-14 01:53:00
10:53 PM,45.0,39.9,82,30.32,10.0,NE,5.8,-,N/A,,Mostly Cloudy,40,2014-05-14 02:53:00
11:53 PM,46.0,41.0,83,30.32,10.0,NE,3.5,-,N/A,,Overcast,50,2014-05-14 03:53:00